Hourly Weather Homel's'ke

Today, 11 April, Sunday

Time Temperature Precipitation Wind Pressure Humidity
00:00 +4°C° 0 mm 3 mps 755 mmHg 50%
01:00 +4°C° 0 mm 3 mps 756 mmHg 51%
02:00 +4°C° 0 mm 3 mps 756 mmHg 53%
03:00 +3°C° 0 mm 3 mps 756 mmHg 56%
04:00 +3°C° 0 mm 3 mps 756 mmHg 60%
05:00 +3°C° 0 mm 3 mps 756 mmHg 63%
06:00 +4°C° 0 mm 4 mps 756 mmHg 59%
07:00 +6°C° 0 mm 4 mps 756 mmHg 54%
08:00 +8°C° 0 mm 5 mps 757 mmHg 50%
09:00 +9°C° 0 mm 5 mps 756 mmHg 46%
10:00 +10°C° 0 mm 6 mps 756 mmHg 42%
11:00 +11°C° 0 mm 6 mps 756 mmHg 37%
12:00 +13°C° 0 mm 6 mps 756 mmHg 36%
13:00 +14°C° 0 mm 6 mps 755 mmHg 35%
14:00 +14°C° 0 mm 6 mps 755 mmHg 33%
15:00 +14°C° 0 mm 6 mps 755 mmHg 35%
16:00 +14°C° 0 mm 6 mps 755 mmHg 37%
17:00 +14°C° 0 mm 5 mps 754 mmHg 39%
18:00 +12°C° 0 mm 5 mps 754 mmHg 43%
19:00 +11°C° 0 mm 4 mps 754 mmHg 48%
20:00 +9°C° 0 mm 3 mps 754 mmHg 52%
21:00 +9°C° 0 mm 3 mps 754 mmHg 54%
22:00 +7°C° 0 mm 4 mps 754 mmHg 56%
23:00 +7°C° 0 mm 4 mps 754 mmHg 58%

Tomorrow, 12 April, Monday

Time Temperature Precipitation Wind Pressure Humidity
00:00 +7°C° 0 mm 4 mps 754 mmHg 59%
01:00 +6°C° 0 mm 4 mps 753 mmHg 60%
02:00 +6°C° 0 mm 4 mps 753 mmHg 61%
03:00 +6°C° 0 mm 4 mps 753 mmHg 62%
04:00 +6°C° 0 mm 4 mps 753 mmHg 63%
05:00 +6°C° 0 mm 4 mps 752 mmHg 64%
06:00 +6°C° 0 mm 4 mps 752 mmHg 66%
07:00 +7°C° 0 mm 4 mps 752 mmHg 67%
08:00 +7°C° 0 mm 4 mps 752 mmHg 69%
09:00 +10°C° 0 mm 4 mps 752 mmHg 67%
10:00 +11°C° 0 mm 3 mps 752 mmHg 66%
11:00 +13°C° 0 mm 3 mps 752 mmHg 65%
12:00 +14°C° 0 mm 3 mps 751 mmHg 64%
13:00 +14°C° 0 mm 4 mps 751 mmHg 63%
14:00 +15°C° 0 mm 4 mps 751 mmHg 62%
15:00 +16°C° 0 mm 3 mps 751 mmHg 65%
16:00 +16°C° 0 mm 3 mps 750 mmHg 67%
17:00 +15°C° 0 mm 2 mps 750 mmHg 70%
18:00 +14°C° 0 mm 2 mps 750 mmHg 74%
19:00 +14°C° 0 mm 2 mps 750 mmHg 77%
20:00 +13°C° 0 mm 2 mps 750 mmHg 81%
21:00 +12°C° 0 mm 2 mps 750 mmHg 83%
22:00 +12°C° 0 mm 2 mps 750 mmHg 85%
23:00 +11°C° 0 mm 3 mps 750 mmHg 86%

Day after tomorrow, 13 April, Tuesday

Time Temperature Precipitation Wind Pressure Humidity
00:00 +10°C° 0 mm 3 mps 750 mmHg 87%
01:00 +10°C° 0 mm 3 mps 750 mmHg 88%
02:00 +10°C° 0 mm 3 mps 751 mmHg 88%
03:00 +10°C° 0 mm 3 mps 751 mmHg 88%
04:00 +10°C° 0 mm 3 mps 751 mmHg 88%
05:00 +10°C° 0 mm 3 mps 751 mmHg 88%
06:00 +10°C° 0 mm 3 mps 751 mmHg 85%
07:00 +10°C° 0 mm 3 mps 751 mmHg 83%
08:00 +11°C° 0 mm 4 mps 751 mmHg 81%
09:00 +12°C° 0 mm 4 mps 751 mmHg 76%
10:00 +13°C° 0 mm 4 mps 751 mmHg 71%
11:00 +14°C° 0 mm 4 mps 751 mmHg 65%
12:00 +14°C° 0 mm 3 mps 751 mmHg 64%
13:00 +14°C° 0 mm 3 mps 751 mmHg 63%
14:00 +14°C° 0 mm 3 mps 751 mmHg 61%
15:00 +14°C° 0 mm 3 mps 750 mmHg 62%
16:00 +14°C° 0 mm 3 mps 750 mmHg 62%
17:00 +14°C° 0 mm 2 mps 750 mmHg 63%
18:00 +14°C° 0 mm 2 mps 750 mmHg 66%
19:00 +13°C° 0 mm 2 mps 750 mmHg 69%
20:00 +13°C° 0 mm 2 mps 750 mmHg 73%
21:00 +12°C° 0 mm 2 mps 750 mmHg 75%
22:00 +12°C° 0 mm 2 mps 750 mmHg 77%
23:00 +12°C° 0 mm 2 mps 750 mmHg 80%

14 April, Wednesday

Time Temperature Precipitation Wind Pressure Humidity
00:00 +10°C° 0 mm 2 mps 750 mmHg 82%
01:00 +10°C° 0 mm 2 mps 750 mmHg 84%
02:00 +9°C° 0 mm 2 mps 750 mmHg 86%
03:00 +9°C° 0 mm 2 mps 750 mmHg 86%
04:00 +8°C° 0 mm 2 mps 750 mmHg 87%
05:00 +8°C° 0 mm 2 mps 749 mmHg 88%
06:00 +9°C° 0 mm 2 mps 749 mmHg 83%
07:00 +10°C° 0 mm 2 mps 749 mmHg 79%
08:00 +12°C° 0 mm 2 mps 750 mmHg 74%
09:00 +13°C° 0 mm 2 mps 749 mmHg 69%
10:00 +14°C° 0 mm 2 mps 749 mmHg 63%
11:00 +15°C° 0 mm 2 mps 749 mmHg 57%
12:00 +15°C° 0 mm 2 mps 748 mmHg 55%
13:00 +14°C° 0 mm 3 mps 748 mmHg 53%
14:00 +16°C° 0 mm 3 mps 748 mmHg 52%
15:00 +14°C° 0 mm 3 mps 748 mmHg 55%
16:00 +14°C° 0 mm 3 mps 747 mmHg 58%
17:00 +13°C° 0 mm 3 mps 747 mmHg 62%
18:00 +12°C° 0.1 mm 3 mps 747 mmHg 65%
19:00 +13°C° 0.1 mm 2 mps 747 mmHg 68%
20:00 +12°C° 0.1 mm 2 mps 747 mmHg 71%
21:00 +10°C° 0 mm 2 mps 747 mmHg 74%
22:00 +9°C° 0 mm 3 mps 747 mmHg 77%
23:00 +9°C° 0 mm 3 mps 747 mmHg 80%

15 April, Thursday

Time Temperature Precipitation Wind Pressure Humidity
00:00 +8°C° 0 mm 3 mps 747 mmHg 83%
01:00 +8°C° 0 mm 2 mps 747 mmHg 86%
02:00 +7°C° 0 mm 2 mps 747 mmHg 89%
03:00 +7°C° 0 mm 2 mps 747 mmHg 90%
04:00 +7°C° 0 mm 3 mps 747 mmHg 90%
05:00 +5°C° 0 mm 3 mps 747 mmHg 91%
06:00 +8°C° 0 mm 3 mps 747 mmHg 85%
07:00 +8°C° 0 mm 4 mps 747 mmHg 79%
08:00 +10°C° 0 mm 4 mps 747 mmHg 72%
09:00 +11°C° 0 mm 4 mps 747 mmHg 68%
10:00 +13°C° 0 mm 4 mps 746 mmHg 63%
11:00 +14°C° 0 mm 3 mps 746 mmHg 58%
12:00 +14°C° 0 mm 3 mps 746 mmHg 57%
13:00 +16°C° 0 mm 3 mps 746 mmHg 56%
14:00 +16°C° 0 mm 3 mps 746 mmHg 55%
15:00 +16°C° 0 mm 3 mps 746 mmHg 57%
16:00 +14°C° 0 mm 3 mps 745 mmHg 60%
17:00 +13°C° 0 mm 3 mps 745 mmHg 63%
18:00 +13°C° 0 mm 3 mps 745 mmHg 68%
19:00 +12°C° 0 mm 3 mps 745 mmHg 72%
20:00 +12°C° 0 mm 2 mps 745 mmHg 77%
21:00 +12°C° 0.5 mm 2 mps 745 mmHg 81%
22:00 +10°C° 0.5 mm 2 mps 745 mmHg 85%
23:00 +10°C° 0.5 mm 2 mps 745 mmHg 89%

16 April, Friday

Time Temperature Precipitation Wind Pressure Humidity
00:00 +10°C° 0.5 mm 1 mps 744 mmHg 90%
01:00 +10°C° 0.5 mm 1 mps 744 mmHg 90%
02:00 +10°C° 0.5 mm 1 mps 744 mmHg 91%
03:00 +10°C° 0.7 mm 1 mps 744 mmHg 92%
04:00 +10°C° 0.7 mm 1 mps 743 mmHg 92%
05:00 +10°C° 0.7 mm 1 mps 743 mmHg 93%
06:00 +9°C° 0.5 mm 2 mps 743 mmHg 93%
07:00 +9°C° 0.5 mm 2 mps 743 mmHg 93%
08:00 +9°C° 0.5 mm 2 mps 743 mmHg 92%
09:00 +9°C° 0.3 mm 3 mps 743 mmHg 91%
10:00 +9°C° 0.3 mm 3 mps 744 mmHg 90%
11:00 +8°C° 0.3 mm 4 mps 744 mmHg 89%
12:00 +8°C° 0.5 mm 4 mps 744 mmHg 89%
13:00 +8°C° 0.5 mm 4 mps 744 mmHg 89%
14:00 +7°C° 0.5 mm 5 mps 744 mmHg 89%
15:00 +7°C° 0.6 mm 4 mps 744 mmHg 88%
16:00 +9°C° 0.6 mm 3 mps 744 mmHg 86%
17:00 +9°C° 0.6 mm 2 mps 744 mmHg 85%
18:00 +8°C° 0.2 mm 2 mps 745 mmHg 85%
19:00 +8°C° 0.2 mm 2 mps 745 mmHg 85%
20:00 +9°C° 0.2 mm 1 mps 746 mmHg 85%
21:00 +8°C° 0 mm 1 mps 746 mmHg 86%
22:00 +8°C° 0 mm 1 mps 747 mmHg 87%
23:00 +7°C° 0 mm 1 mps 747 mmHg 88%
Show more